N7WLC Weather Reports


time (UTC)temp
C
wind
direction
speed
KPH
gust
KPH
rain 1hr
cm
rain 24hr
cm
rain mn
cm
humidity
%
barometer
mb
20260507040047 14 255 0.0 0.0 0.00 0.00 0.00 79 1016.9
20260507033047 15 255 0.0 0.0 0.00 0.00 0.00 76 1016.7
20260507030047 15 255 0.0 0.0 0.00 0.00 0.00 71 1016.4
20260507023047 16 249 0.0 0.0 0.00 0.00 0.00 67 1016.0
20260507020047 17 227 0.0 0.0 0.00 0.00 0.00 63 1016.0
20260507013048 18 244 0.0 0.0 0.00 0.00 0.00 61 1016.0
20260507010047 18 249 0.0 0.0 0.00 0.00 0.00 57 1016.1
20260507003047 20 246 0.0 0.0 0.00 0.00 0.00 56 1015.8
20260507000048 20 235 0.0 0.0 0.00 0.00 0.00 56 1015.8
20260506233048 21 279 3.2 3.2 0.00 0.00 0.00 53 1016.0
20260506230047 21 272 3.2 4.8 0.00 0.00 0.00 54 1016.1
20260506223047 21 256 1.6 1.6 0.00 0.00 0.00 53 1016.4
20260506220047 22 243 1.6 3.2 0.00 0.00 0.00 49 1016.8
20260506213047 23 262 1.6 1.6 0.00 0.00 0.00 42 1017.0
20260506210047 22 296 6.4 6.4 0.00 0.00 0.00 50 1017.1
20260506202118 23 251 3.2 4.8 0.00 0.00 0.00 50 1017.3
20260506195118 23 256 0.0 0.0 0.00 0.00 0.00 50 1017.5
20260506192120 23 240 0.0 0.0 0.00 0.00 0.00 47 1017.7
20260506185118 22 334 6.4 9.7 0.00 0.00 0.00 43 1017.8
20260506182118 21 217 1.6 1.6 0.00 0.00 0.00 48 1018.0
20260506175119 21 194 3.2 3.2 0.00 0.00 0.00 46 1017.9
20260506172118 21 223 0.0 0.0 0.00 0.00 0.00 48 1018.2
20260506165118 20 176 1.6 1.6 0.00 0.00 0.00 50 1018.2
20260506162118 19 216 1.6 1.6 0.00 0.00 0.00 51 1018.1
20260506155118 18 222 0.0 0.0 0.00 0.00 0.00 55 1018.2
20260506152117 16 218 0.0 0.0 0.00 0.00 0.00 62 1018.1
20260506145117 15 200 3.2 3.2 0.00 0.00 0.00 69 1018.2
20260506142117 13 250 1.6 1.6 0.00 0.00 0.00 75 1018.0
20260506135117 10 250 0.0 0.0 0.00 0.00 0.00 89 1017.7
20260506132117 9 251 0.0 0.0 0.00 0.00 0.00 92 1017.8
20260506125118 8 251 0.0 0.0 0.00 0.00 0.00 93 1017.5
20260506122117 9 251 0.0 0.0 0.00 0.00 0.00 92 1017.1
20260506115117 9 251 0.0 0.0 0.00 0.00 0.00 92 1016.9
20260506112118 9 251 0.0 0.0 0.00 0.00 0.00 91 1017.0
20260506105117 9 251 0.0 0.0 0.00 0.00 0.00 91 1017.0
20260506102117 10 251 0.0 0.0 0.00 0.00 0.00 91 1016.9
20260506095118 10 251 0.0 0.0 0.00 0.00 0.00 91 1017.2
20260506092117 10 250 0.0 0.0 0.00 0.00 0.00 90 1017.2
20260506085118 10 250 0.0 0.0 0.00 0.00 0.00 90 1017.2
20260506082117 10 250 0.0 0.0 0.00 0.00 0.00 92 1017.5
20260506072117 10 250 0.0 0.0 0.00 0.00 0.00 91 1017.5
20260506062118 11 250 0.0 0.0 0.00 0.00 0.00 89 1016.7
20260506045117 12 240 0.0 0.0 0.00 0.00 0.00 85 1016.1
20260506042118 12 240 0.0 0.0 0.00 0.00 0.00 83 1015.9